Home > Time Zones > World Clock > Weather > Japan > Tokyo > Past weeks

Flag for Japan Weather past 2 weeks in Tokyo, Japan

Now
82 °F

Warm.


Feels Like: 89 °F
Forecast: 78 / 90 °F
Wind: 3 mph from Southeast

Location: Tokyo

Current Time: Jul 30, 2015 at 1:31:38 AM

Latest Report: Jul 30, 2015 at 12:00 AM


Visibility: N/A

Pressure: 29.78 "Hg

Humidity: 83%

Dew point: 76 °F

Location of TokyoLocation

Historic Weather in Tokyo — Graph

°F

Tokyo temperature yesterday

Maximum temperature yesterday: 89 °F (at 2:00 PM)
Minimum temperature yesterday: 81 °F (at 12:00 AM)
Average temperature yesterday: 85 °F

Past Weeks' High & Low Weather Summary

 TemperatureHumidityPressure
High95 °F (Jul 26, 2:00 PM)99% (Jul 16, 4:00 AM)29.96 "Hg (Jul 16, 4:00 AM)
Low74 °F (Jul 17, 1:00 AM)44% (Jul 21, 2:00 PM)29.67 "Hg (Jul 28, 3:00 PM)
Average83 °F74%29.81 "Hg
* Reported Midnight between Jul 14 and Jul 15 — Midnight between Jul 29 and Jul 30, Tokyo, Weather by CustomWeather, © 2015

Note: Actual official high and low records may vary slightly from our data, if they occured in-between our weather recording intervals... More about our weather records

Advertising

Tokyo weather history for previous 24 hours

 ConditionsComfort  
Time TempWeatherWind HumidityBarometerVisibility
12:00 AM
Thu, Jul 30
82 °FWarm.3 mph83%29.78 "HgN/A
11:00 PM
Wed, Jul 29
82 °FWarm.5 mph80%29.79 "HgN/A
10:00 PM83 °FWarm.6 mph80%29.79 "HgN/A
9:00 PM83 °FOvercast.6 mph77%29.80 "Hg9 mi
8:00 PM84 °FWarm.8 mph73%29.79 "HgN/A
7:00 PM85 °FWarm.10 mph68%29.76 "HgN/A
6:00 PM86 °FPassing clouds.12 mph66%29.75 "Hg9 mi
5:00 PM88 °FHot.8 mph65%29.74 "HgN/A
4:00 PM89 °FHot.8 mph64%29.73 "HgN/A
3:00 PM88 °FOvercast.10 mph60%29.74 "Hg9 mi
2:00 PM89 °FHot.6 mph59%29.74 "HgN/A
1:00 PM87 °FWarm.7 mph63%29.75 "HgN/A
11:00 AM88 °FWarm.3 mph57%29.76 "HgN/A
10:00 AM85 °FWarm.3 mph68%29.76 "HgN/A
9:00 AM86 °FOvercast.3 mph71%29.76 "Hg6 mi
8:00 AM85 °FWarm.5 mph66%29.76 "HgN/A
7:00 AM83 °FWarm.3 mph72%29.75 "HgN/A
5:00 AM82 °FWarm.5 mph78%29.74 "HgN/A
4:00 AM82 °FWarm.3 mph74%29.73 "HgN/A
3:00 AM83 °FOvercast.3 mph71%29.72 "Hg12 mi
2:00 AM84 °FWarm.5 mph69%29.72 "HgN/A
1:00 AM83 °FWarm.3 mph75%29.72 "HgN/A
Weather by CustomWeather, © 2015

See weather overviewHow to use our weather pages